Regional Weather Roundup
Issued by NWS Newport/Morehead, NC

Home | Current Version | Previous Version | Text Only | Print | Product List | Glossary On
Versions: 1 2 3 4 5 6 7 8 9 10 11 12 13 14 15 16 17 18 19 20 21 22 23 24 25 26 27 28 29 30 31 32 33 34 35 36 37 38 39 40 41 42 43 44 45 46 47 48 49 50
000
ASUS42 KMHX 211225
RWRMHX
WEATHER ROUNDUP FOR EASTERN NORTH CAROLINA
NATIONAL WEATHER SERVICE NEWPORT/MOREHEAD CITY NC
800 AM EDT FRI JUL 21 2017

NOTE: "FAIR" INDICATES FEW OR NO CLOUDS BELOW 12,000 FEET
WITH NO SIGNIFICANT WEATHER AND/OR OBSTRUCTIONS TO VISIBILITY

NCZ015>017-031-032-045>047-102-103-211300-
NORTH COAST

CITY           SKY/WX    TMP DP  RH WIND       PRES   REMARKS
EDENTON        SUNNY     81  76  85 CALM      30.00R
ELIZABETH CITY SUNNY     79  77  94 SW7       29.98R
KITTY HAWK     MOSUNNY   80  74  83 CALM      29.98S
MANTEO         SUNNY     79  75  86 W6        29.99S

$$

NCZ045>047-081-094-103-104-211300-
CENTRAL COAST

CITY           SKY/WX    TMP DP  RH WIND       PRES   REMARKS
FRISCO         SUNNY     80  75  84 SW9       30.01R

$$

NCZ095-097-098-100-101-211300-
SOUTHERN COAST

CITY           SKY/WX    TMP DP  RH WIND       PRES   REMARKS
BEAUFORT       SUNNY     82  78  88 W10       30.02R
CEDAR ISLAND   NOT AVBL
JACKSONVILLE   SUNNY     78  77  96 W7        30.02R
PINEY ISLAND   SUNNY    N/A N/A N/A SW7       30.01R
WILMINGTON     SUNNY     79  75  87 W8        30.03R


$$

NCZ011>013-027>030-043-044-078>080-089-090>093-098-211300-
COASTAL PLAIN

CITY           SKY/WX    TMP DP  RH WIND       PRES   REMARKS
AHOSKIE          N/A     77  75  92 CALM      29.98S
CLINTON        SUNNY     77  76  98 CALM      30.03R
ELIZABETHTOWN  NOT AVBL
GOLDSBORO      SUNNY     78  78 100 SW5       30.00R
GREENVILLE     SUNNY     81  75  83 W5        30.02R
HAVELOCK       SUNNY     78  75  90 SW5       30.03
KENANSVILLE    SUNNY     77  75  94 SW7       30.03R
KINSTON        SUNNY     79  75  89 SW7       30.01R
NEW BERN       MOSUNNY   78  76  93 SW6       30.03R
RICHLANDS      SUNNY     78  75  90 SW7       30.03R
ROCKY MOUNT    SUNNY     78  76  93 SW6       29.99R
WASHINGTON     SUNNY     79  74  85 SW6       30.01R
WHITEVILLE     SUNNY     78  72  83 CALM      30.03S

$$

AMZ130-135-150-152-154-156-158-170-250-252-270-ANZ085-086-088-633-658-670-211300-
MARINE OBSERVATIONS

STATION/POSITION TIME  TEMP    WIND        PRES    WAVE   SWELL
                       AIR SEA DIR/SP/G            HT/PER HT/PER
                 (UTC) (F)     (DEG/KT/KT) (MB)    (FT/S) (FT/S)
CHESAPEAKE LIGHT NOT AVBL
64 E VA BEACH    1150   80 80  220/ 10/ 10 1015.3    3/ 4   2/ 7
DUCK             1200   80 59  220/ 10/ 12 1014.9
2 E DUCK         1200      63                N/A     2/15   2/15
OREGON INLET     1200   80 81  240/  9/ 11 1015.5
13E OREGON INLT  1148      78                N/A     2/12   2/12
HATTERAS CG      1200   80 79  230/  7/ 10 1016.1
DIAMOND BUOY     1150   82 84  260/ 10/ 12 1015.9    3/ 4   2/ 8
CAPE LOOKOUT     1200   81     250/  9/ 13 1016.3
BEAUFORT LAB     1200   81 79  260/  5/ 10 1016.0
30 SE NEW RVR IN 1208   80 81  260/ 12/ 14 1016.9
30 SE NEW RVR IN 1213      81                N/A     3/ 4   2/11
27 SE WRIGHTSVLE 1208   81 81  240/ 10/ 14 1016.8
5 SE WRIGHTSVLE  1208   80 81  250/  8/ 12 1016.8
225 S CAPE HAT   1150   82 83  230/ 10/ 12 1018.5    3/ 8   3/ 8
41 SE CHARLESTON 1210   82 83  230/ 10/ 12 1017.1

$$



USA.gov is the U.S. government's official web portal to all federal, state and local government web resources and services.